Wind_Speed
67 67 66 66 66 67 68 69 70 70 70 71 71 72 73 73 74 74 75 76 77 78 78 79 81 82 83 84 85 86 87 89 90 92 93 94 95 96 98 99 101 102 104 105 107 108 110 111 112 114 115 116 116 116 118 120 119 118 119 120 118 115 113 112 113 111 108 107 107 105 101 97 96 96 94 91 89 88 87 87 86 86 86 84 82
68 68 68 68 68 69 70 71 72 72 72 72 73 74 74 75 76 76 77 78 79 80 81 82 83 84 85 86 87 88 90 91 93 94 94 96 97 99 101 102 104 105 106 108 109 111 112 113 114 115 116 116 116 115 115 117 117 117 118 116 112 109 110 111 110 107 105 104 101 98 96 95 94 92 89 86 85 84 84 83 83 82 82 81 78
70 70 70 70 70 71 72 73 73 73 73 74 74 75 75 76 77 78 79 80 81 82 83 84 85 86 87 88 89 91 92 94 95 95 97 98 100 102 103 104 106 107 109 110 111 113 114 114 115 115 115 114 113 112 112 112 113 111 110 109 108 108 107 106 104 102 99 97 93 92 93 91 89 86 84 83 82 81 80 79 79 78 78 77 75
71 71 71 72 72 73 74 75 75 74 75 75 76 76 77 78 79 80 80 81 82 83 85 86 87 88 89 90 92 93 94 95 96 98 100 102 103 104 105 106 107 109 111 112 113 114 115 115 115 114 113 111 110 110 109 109 108 105 104 106 107 105 103 100 98 96 92 90 89 89 87 85 83 81 80 79 77 76 75 74 74 74 75 75 75
73 73 73 73 74 75 76 76 76 76 76 77 78 79 79 80 81 81 82 83 84 85 86 88 89 90 91 93 93 94 95 97 99 101 103 104 105 106 107 108 110 111 112 114 114 115 115 115 113 111 109 107 106 104 104 105 105 103 104 106 104 100 98 95 92 89 87 86 84 82 80 78 76 75 74 73 72 71 71 71 72 73 75 77 78
76 75 75 76 76 77 78 78 78 79 79 80 80 81 81 82 83 83 84 85 86 87 88 90 91 92 93 94 95 97 98 100 102 103 104 105 106 107 108 110 111 112 113 114 115 115 115 113 110 107 104 103 102 100 101 104 104 102 101 101 98 94 91 88 85 83 82 80 77 76 74 72 70 70 69 69 69 70 71 72 74 75 77 79 80
78 77 77 78 79 80 80 81 81 81 81 82 82 83 84 84 85 86 86 87 88 89 91 92 94 94 95 97 98 99 101 102 103 104 105 106 107 108 110 111 112 113 114 114 114 114 112 109 105 102 99 98 99 100 101 102 99 95 94 94 91 86 84 81 79 77 76 74 73 71 70 69 69 69 69 69 70 71 72 73 75 76 77 79 80
79 80 80 80 81 82 83 83 83 83 83 83 84 85 86 86 87 88 88 89 91 93 94 95 96 97 98 99 100 101 102 103 104 105 105 107 108 110 112 113 114 114 114 114 113 111 108 104 100 97 96 96 96 97 97 95 92 91 90 88 84 80 77 75 74 73 72 71 70 69 68 69 69 69 69 70 70 70 72 73 75 76 77 78 80
82 82 82 82 83 84 84 85 85 85 85 86 86 87 87 88 89 89 90 92 94 95 96 97 98 98 99 100 101 102 103 104 105 106 107 108 110 112 113 114 114 113 113 112 110 106 102 97 94 92 92 93 93 92 91 90 89 88 85 81 77 75 73 72 71 71 70 69 68 68 68 68 68 68 68 69 69 70 72 73 75 76 77 78 79
84 84 84 84 85 85 86 87 87 87 87 87 87 88 89 90 90 91 92 94 96 97 98 98 99 99 100 100 101 102 103 104 106 107 109 110 111 113 114 114 113 112 110 107 104 99 94 91 88 87 88 89 89 88 87 86 85 83 79 76 74 73 72 71 70 69 68 67 66 66 66 66 66 67 67 68 69 71 72 73 75 76 77 78 79
86 86 86 86 87 88 89 89 89 88 88 88 89 89 90 91 92 93 94 96 97 98 99 99 99 100 100 101 101 102 104 105 107 108 110 111 112 113 113 112 110 107 104 100 96 92 88 85 84 84 84 85 85 85 83 81 78 76 73 72 71 70 69 68 67 66 65 64 63 64 64 65 66 67 68 69 70 72 73 74 75 76 77 79 79
88 88 88 89 90 91 91 90 90 90 90 90 90 91 92 93 93 94 96 97 99 100 100 100 99 100 100 101 102 103 104 105 107 108 110 111 112 112 111 108 104 100 96 92 88 84 81 80 81 81 81 81 81 79 76 73 71 69 67 66 66 65 64 63 62 62 61 61 61 63 64 65 66 68 69 71 72 74 75 76 77 79 80 81 82
90 90 91 91 91 91 91 91 91 91 91 92 92 93 93 94 95 96 97 98 100 100 100 100 100 100 100 101 102 102 103 105 106 108 109 110 110 109 106 102 98 93 88 84 80 77 76 76 77 78 77 76 75 73 70 68 66 63 62 61 60 59 58 58 58 58 59 60 61 62 63 64 64 65 67 69 70 72 74 76 78 80 81 83 85
91 91 91 91 91 92 91 91 92 92 92 93 93 94 94 95 96 97 98 99 99 100 100 99 99 100 101 101 101 101 102 104 106 107 107 108 107 104 100 96 91 86 81 76 73 72 72 73 73 73 72 70 68 66 65 63 61 59 57 56 55 54 55 56 57 58 59 60 61 62 62 63 63 64 66 67 68 70 72 74 76 78 80 83 85
92 92 92 92 93 93 93 93 93 93 93 94 94 95 95 96 96 97 98 98 99 99 98 98 99 100 100 100 100 101 103 105 105 105 106 105 102 98 93 88 82 77 74 71 69 68 69 69 69 68 66 64 62 60 58 57 55 54 53 52 52 54 55 57 58 59 60 61 62 62 63 63 64 65 67 68 69 71 72 74 75 77 79 81 83
94 94 95 95 95 94 94 94 94 94 95 95 95 95 95 96 97 97 97 97 97 96 96 97 99 99 100 100 101 103 104 104 104 104 104 101 97 92 87 81 76 72 69 67 67 66 65 64 64 62 60 58 57 55 54 53 52 51 52 53 54 56 58 59 59 60 61 61 62 62 63 64 65 67 68 70 72 74 75 76 77 78 80 81 83
97 97 97 97 96 96 95 95 95 95 95 95 95 96 96 96 97 97 96 95 95 94 95 97 98 98 99 101 102 102 102 102 103 103 100 96 92 88 83 78 73 69 67 65 64 63 62 61 59 58 56 55 54 53 52 51 51 52 54 55 57 59 60 61 61 61 61 61 61 62 63 64 66 68 71 74 76 77 78 79 80 81 82 83 84
99 98 98 98 98 97 97 96 96 96 96 96 97 97 97 97 96 95 94 93 93 94 95 96 97 98 99 100 100 101 102 102 102 99 95 92 90 87 83 78 72 67 64 63 61 60 59 58 57 55 55 54 53 52 51 52 53 55 57 58 60 62 63 62 62 61 61 61 61 62 64 66 68 70 74 76 79 80 81 82 83 84 84 86 87
100 100 99 99 98 97 96 96 96 96 96 97 97 96 96 95 94 93 92 92 93 94 95 95 95 97 98 98 98 100 101 100 98 95 93 91 89 87 83 77 71 66 62 60 59 58 57 55 54 53 53 52 52 52 53 55 57 59 60 62 63 63 63 62 62 62 62 62 63 64 65 67 70 72 74 77 80 82 83 84 85 87 88 89 90
101 100 100 98 97 97 97 96 96 96 96 96 95 95 94 94 93 93 93 93 94 94 94 93 93 94 94 95 98 99 98 95 94 93 91 89 87 84 79 74 70 65 61 58 57 56 55 54 53 53 53 53 54 54 56 58 61 62 63 64 64 64 64 64 65 65 65 65 65 66 67 69 71 73 75 79 82 85 86 87 89 90 92 93 95
103 102 101 100 99 98 98 97 96 95 94 94 94 94 94 94 94 94 93 93 92 92 92 92 91 91 92 94 95 95 93 92 91 91 90 88 86 82 76 73 70 66 61 59 58 57 56 56 56 56 57 58 59 60 62 64 66 67 68 67 67 67 67 67 67 66 66 67 67 68 69 71 73 75 78 81 84 87 90 91 93 94 96 97 99
105 104 103 101 100 100 99 97 95 94 94 94 94 95 95 95 95 95 94 91 89 89 90 89 89 91 93 93 91 89 90 90 90 89 88 86 84 80 75 73 71 66 62 61 60 59 59 59 60 61 62 63 65 67 69 70 71 71 71 70 70 70 69 68 68 68 68 68 69 70 72 74 76 78 81 84 87 90 92 94 96 98 99 101 103
107 106 105 103 102 101 99 97 96 95 95 95 95 95 95 96 96 95 92 89 87 86 87 89 91 93 93 91 88 87 88 89 89 88 86 85 83 80 75 72 70 66 63 62 62 61 62 63 63 65 66 67 68 69 71 72 72 72 72 72 72 71 71 70 70 70 71 72 72 73 75 77 79 82 85 87 90 93 95 97 99 101 103 105 108
107 106 105 104 102 100 99 98 97 97 97 96 96 96 97 96 95 91 88 86 84 84 87 90 93 92 90 88 87 87 87 88 88 87 86 85 83 80 76 73 70 67 65 63 63 64 65 65 66 67 68 68 68 69 70 70 71 71 71 71 71 71 71 71 71 72 73 74 74 76 78 80 83 85 88 91 93 95 97 99 102 104 107 109 111
106 105 104 103 102 100 99 99 99 99 98 97 96 95 93 91 88 86 84 84 83 85 89 91 91 89 87 87 87 87 87 87 87 86 85 83 81 80 78 75 72 69 67 65 65 65 66 67 68 68 68 68 67 67 67 68 69 70 70 71 71 71 71 71 72 73 74 75 77 79 81 83 86 88 91 93 96 98 101 103 105 108 110 111 113
105 104 104 104 102 101 100 99 98 97 94 91 88 86 85 83 82 83 84 85 86 88 89 88 86 86 87 87 88 88 88 87 86 85 84 82 79 79 79 77 75 73 71 69 68 66 66 68 69 69 69 69 68 68 67 68 69 69 70 70 71 72 72 73 73 75 76 78 80 81 83 86 88 91 94 96 99 102 105 107 109 110 111 112 114
105 104 104 104 102 100 98 95 92 88 85 82 80 80 81 81 81 82 84 86 88 88 85 84 84 85 87 88 90 90 89 87 86 86 84 82 80 78 78 76 75 75 75 74 73 71 69 68 68 68 69 70 70 70 69 69 70 70 70 71 72 73 73 74 75 77 79 80 82 84 86 89 91 94 97 100 103 107 109 110 111 112 113 114 117
100 99 98 97 95 92 89 86 82 79 78 78 78 79 80 81 82 83 85 87 87 85 83 82 82 84 86 89 91 91 89 87 86 85 83 81 79 78 77 76 75 76 78 79 79 77 75 72 70 69 70 71 71 72 71 72 73 73 73 74 75 76 76 77 78 80 81 83 85 88 90 92 95 98 101 104 107 109 112 113 114 115 116 117 119
89 88 85 83 81 78 76 75 74 74 74 76 78 80 81 82 82 83 85 86 85 83 81 81 82 85 88 90 91 90 88 87 86 85 83 81 79 78 77 77 77 78 80 81 81 82 81 78 76 75 74 74 74 73 74 75 76 77 77 78 79 80 81 82 83 84 86 87 89 91 93 96 99 102 104 106 109 112 115 117 118 119 119 120 121
77 75 73 72 71 70 70 70 72 73 75 77 79 81 82 83 83 84 84 85 83 81 81 82 84 86 88 90 89 88 87 87 87 86 84 82 80 79 78 78 78 79 80 81 82 83 83 82 81 80 79 79 78 77 78 79 80 80 81 82 83 85 85 86 87 89 90 91 92 94 97 100 102 105 107 109 112 115 119 121 122 122 121 122 124
70 70 68 67 68 69 70 72 74 76 78 80 82 83 84 84 84 83 83 83 82 82 82 83 86 88 90 91 90 89 87 87 88 87 86 83 80 79 80 81 80 80 80 81 82 82 83 83 83 83 83 83 82 83 84 84 84 85 85 86 87 88 88 89 90 92 94 95 96 97 100 102 105 107 109 111 115 118 121 124 125 124 124 124 126
70 70 69 69 70 71 74 76 78 79 80 82 84 85 85 84 84 83 84 84 84 85 87 89 90 91 92 92 90 89 89 89 89 88 86 83 81 81 82 82 82 81 82 81 82 83 84 85 85 85 85 85 85 87 88 88 89 89 89 89 90 91 91 92 94 95 96 97 98 99 101 104 107 109 111 113 116 120 123 126 127 126 126 126 128
73 73 73 73 73 75 77 79 80 82 83 84 85 85 85 84 84 85 87 87 88 91 93 92 91 90 89 90 90 90 90 91 90 89 87 84 83 83 83 83 83 83 83 83 83 84 85 86 87 87 87 87 88 89 90 91 91 91 91 91 92 92 93 94 95 96 97 98 100 101 103 106 108 110 112 114 118 121 125 127 128 128 128 129 130
75 76 77 78 78 78 79 81 82 83 84 85 86 87 88 88 89 90 91 93 98 101 98 93 90 89 89 90 90 91 92 93 92 91 90 88 87 86 85 84 84 84 85 85 85 85 86 87 88 89 89 89 90 91 92 93 93 93 92 92 92 92 94 95 96 97 98 100 101 103 105 108 109 111 113 116 120 123 127 129 130 130 130 131 132
78 79 79 80 81 81 81 81 82 83 84 85 87 90 91 93 94 97 100 105 108 107 101 95 92 90 89 90 91 93 94 95 95 95 93 92 90 89 88 86 85 86 87 87 87 87 87 88 89 90 90 91 92 93 94 96 96 95 94 93 93 93 94 95 96 98 99 101 102 104 106 108 110 112 115 118 122 126 129 131 132 132 133 133 134
84 83 83 82 82 82 82 82 83 84 86 88 91 93 96 98 102 107 110 109 106 102 98 94 90 87 87 89 92 94 95 96 97 97 96 94 93 92 91 89 88 89 90 90 89 88 88 88 89 90 91 92 94 95 96 97 98 97 96 96 96 96 96 97 98 100 101 102 103 105 107 109 112 114 117 121 125 128 131 133 134 134 135 136 136
91 88 86 85 84 84 83 83 84 86 89 95 100 104 106 108 110 112 112 109 106 103 99 93 88 85 86 89 92 94 96 98 99 100 100 98 96 95 94 93 92 92 93 93 92 90 89 90 90 91 93 94 96 97 98 99 100 100 100 99 99 99 100 100 101 101 102 103 104 106 108 111 114 116 119 123 127 130 133 134 136 136 137 138 138
92 92 91 89 88 87 87 91 95 100 104 109 114 115 114 112 111 111 110 110 109 106 100 93 88 86 87 89 92 95 97 100 102 103 102 100 98 97 96 96 95 94 95 95 95 93 91 91 92 93 95 97 99 100 101 101 102 103 103 102 102 102 102 103 103 103 104 105 106 108 110 113 116 118 121 125 129 132 135 136 137 138 139 139 140
91 93 95 96 98 99 102 108 114 118 120 120 119 118 115 113 112 110 108 106 103 98 93 89 87 86 87 89 92 95 99 103 105 105 104 101 99 98 99 98 97 96 97 97 96 95 94 95 95 95 97 99 101 102 103 103 104 105 106 106 105 105 105 105 104 105 105 106 108 110 113 115 118 120 123 128 131 134 136 138 139 139 140 141 142
106 108 109 111 114 117 120 123 124 124 124 122 120 118 116 116 114 111 106 102 98 94 90 88 86 86 87 90 93 97 102 105 107 106 104 101 100 100 101 101 100 99 99 99 98 97 98 99 99 99 100 102 103 104 104 104 105 107 109 109 108 107 106 106 105 106 107 108 110 112 115 117 119 122 126 130 133 136 138 139 140 141 142 143 144
124 124 123 123 125 126 126 126 125 124 124 123 121 120 119 117 115 112 108 103 99 94 90 88 88 88 89 91 95 100 104 106 107 107 105 103 102 103 104 104 102 102 102 102 100 99 99 101 102 103 104 105 106 106 105 106 107 109 110 110 109 108 108 107 108 108 109 110 112 114 116 118 121 124 128 132 135 138 140 141 142 143 144 145 145
130 129 127 126 126 126 126 125 125 126 126 125 123 121 119 117 116 113 108 102 96 91 89 88 89 90 91 93 97 101 105 107 108 108 106 105 105 106 106 106 105 104 104 103 101 100 102 103 105 106 106 107 107 107 107 107 108 108 109 109 109 109 110 110 110 110 111 112 114 116 118 120 123 127 131 135 138 140 142 142 143 145 146 146 145
133 130 128 126 126 126 126 127 128 128 128 126 123 121 118 115 112 107 101 95 91 89 89 90 90 92 94 96 98 102 105 108 109 108 107 107 107 107 108 108 107 106 106 105 102 102 104 106 106 106 106 106 106 105 105 105 106 107 108 109 110 111 111 112 112 113 114 115 116 118 120 122 126 130 134 137 140 143 144 144 145 146 147 146 146
134 131 128 128 128 128 129 129 129 128 126 123 120 117 113 107 100 94 91 91 91 92 93 94 95 96 97 98 99 101 104 106 107 107 108 109 109 109 110 110 109 109 108 107 105 104 104 105 105 104 103 103 103 102 103 104 105 107 109 110 111 112 112 113 114 114 115 116 118 120 122 125 129 133 137 140 144 145 145 145 146 147 147 146 145
135 133 132 131 131 131 131 130 129 126 123 120 116 111 105 98 92 90 91 93 93 94 95 96 97 97 98 99 99 100 102 104 106 107 109 110 110 110 110 111 111 111 111 111 109 107 105 103 102 103 103 103 103 103 103 105 106 108 110 111 112 112 113 114 115 116 117 119 121 123 126 129 133 137 140 144 146 146 146 146 147 147 147 145 142
135 134 134 134 133 132 130 129 127 124 121 115 108 101 95 92 91 91 93 94 95 95 96 97 97 97 97 98 99 100 100 102 105 109 110 111 110 109 110 112 112 113 113 113 111 110 108 106 105 105 106 106 105 106 106 107 108 109 110 111 112 113 114 115 116 118 120 122 124 127 130 134 137 140 144 147 148 147 147 147 147 147 146 142 137
133 131 131 131 131 129 126 124 121 118 113 106 97 91 88 89 91 92 94 95 96 97 98 98 98 98 98 97 97 98 99 102 105 109 112 113 112 112 112 113 113 113 114 114 114 114 112 110 108 108 109 109 109 109 110 110 111 111 112 112 114 115 116 117 119 121 123 126 128 131 135 138 141 144 147 149 148 147 147 147 146 145 143 138 131
128 127 125 124 124 123 121 118 115 110 103 97 91 89 89 92 94 95 97 98 99 99 100 100 100 100 99 97 96 97 99 102 105 109 113 115 116 115 115 115 114 115 115 116 117 117 115 113 112 111 111 112 112 113 113 113 114 114 114 115 116 117 119 121 123 125 128 130 133 136 139 141 144 148 149 149 148 147 147 146 145 143 138 132 127
124 123 121 119 118 118 116 113 109 103 98 93 91 91 93 95 97 98 98 98 98 99 99 99 98 97 96 96 97 99 101 103 106 110 113 116 117 117 117 116 116 117 118 118 119 118 116 114 114 114 114 115 115 115 116 116 116 116 117 118 119 120 122 124 127 129 132 135 138 141 143 146 148 150 149 149 148 147 146 145 142 138 132 126 124
121 119 118 116 115 114 112 109 104 99 95 94 93 94 96 97 98 97 96 96 97 97 96 95 94 93 94 96 98 100 102 105 107 110 113 115 117 117 118 118 119 120 121 121 120 118 117 116 116 117 117 117 118 118 118 118 118 118 119 120 121 123 126 128 131 134 137 140 142 145 147 149 150 150 149 148 147 146 144 142 137 131 126 123 123
118 117 115 114 112 111 109 105 99 94 93 94 96 97 99 99 99 98 98 97 97 96 95 94 94 94 96 98 100 102 104 106 108 111 113 115 117 118 119 121 122 123 123 122 120 119 119 119 119 119 120 121 121 120 120 120 120 121 121 123 124 127 129 132 135 138 142 144 147 149 151 151 151 150 149 148 146 144 142 137 131 126 124 123 123
Wind_Direction
274 276 277 278 279 280 282 282 283 284 285 286 287 288 289 290 291 291 292 293 293 295 295 296 297 298 299 300 300 301 301 302 302 303 303 303 303 304 304 305 305 306 307 308 308 309 309 310 310 310 310 310 310 309 308 307 308 307 305 304 304 303 303 304 305 306 307 308 309 309 309 309 309 310 310 311 313 314 314 315 315 315 315 315 316
274 275 276 277 278 279 280 281 281 283 284 285 287 287 288 289 290 291 292 293 294 295 295 296 298 299 299 300 300 300 301 302 302 303 303 303 303 303 304 305 305 306 307 308 308 309 309 310 310 310 310 310 310 308 306 306 305 303 302 301 302 303 303 304 305 307 308 308 308 308 309 309 310 310 312 313 315 316 317 317 316 315 315 315 316
273 274 275 277 277 278 279 280 281 283 284 285 286 287 287 289 290 291 292 293 294 295 296 297 298 298 299 299 300 300 301 302 302 302 302 302 303 303 304 305 306 306 307 308 308 309 309 310 310 310 310 310 308 306 304 302 300 299 299 300 302 303 304 305 306 307 307 308 307 308 308 309 310 312 314 316 317 318 317 316 315 315 315 316 317
274 275 276 276 277 278 279 280 282 283 283 284 285 286 287 288 290 291 292 293 294 295 296 296 297 298 298 299 300 301 301 302 302 302 302 303 303 304 304 305 306 306 307 308 309 309 309 310 310 310 309 308 306 303 301 299 298 298 298 299 302 303 304 306 306 306 306 307 307 308 309 311 313 315 316 317 317 316 315 315 315 316 317 318 319
274 275 276 277 278 278 279 280 281 282 282 283 285 286 287 288 290 291 291 292 293 294 295 296 297 297 298 299 300 300 301 301 301 302 303 303 304 304 305 305 306 307 308 308 309 309 309 310 310 310 309 306 304 301 298 298 298 297 298 300 302 304 305 306 306 305 306 307 308 310 312 313 315 316 316 316 315 314 315 316 317 318 319 320 320
273 275 276 277 277 278 279 280 280 281 282 283 285 286 287 289 290 290 291 292 293 294 294 295 296 297 298 299 300 300 301 301 302 303 303 304 304 304 305 305 306 307 307 308 308 309 310 311 310 309 307 304 301 298 296 296 297 298 300 302 304 305 305 305 305 306 307 308 309 311 313 314 315 314 314 313 314 315 317 318 319 320 319 319 318
273 274 275 276 277 278 278 279 280 281 283 284 286 287 288 289 289 290 291 292 293 294 294 295 296 297 298 299 300 300 301 302 303 303 303 304 304 304 304 305 306 306 307 308 309 310 311 310 309 307 304 301 297 295 295 296 298 301 302 304 306 306 305 305 306 306 307 308 310 312 313 313 313 313 314 315 317 319 319 319 319 318 318 318 318
273 274 275 276 276 277 279 280 281 282 284 285 286 287 288 288 289 290 291 292 293 294 295 296 297 298 299 299 300 301 301 302 302 303 303 303 303 303 304 305 306 307 308 309 310 311 310 309 307 304 301 298 296 295 296 299 301 302 303 305 306 305 305 305 305 306 308 310 311 311 312 313 314 316 317 319 320 320 319 318 318 318 318 317 317
272 273 274 275 276 277 279 280 281 283 284 285 286 287 288 288 289 291 292 293 293 294 295 297 297 298 299 300 300 301 301 302 302 302 302 303 303 304 305 306 307 308 309 310 310 310 309 307 305 302 299 297 296 297 299 300 301 302 304 304 304 304 304 305 306 307 309 310 311 312 314 316 318 319 320 320 320 319 319 319 318 318 317 317 316
272 273 274 275 276 277 278 280 281 282 283 284 285 286 287 288 290 291 292 293 294 295 296 297 298 298 299 299 300 300 301 301 302 302 302 303 304 304 305 307 308 309 310 310 310 309 308 306 303 300 298 297 297 298 299 301 302 303 304 303 303 304 305 306 307 308 310 312 315 317 319 321 321 322 321 320 320 319 319 318 317 316 316 315 315
272 273 274 275 276 277 278 279 281 282 283 284 285 286 287 288 289 291 292 293 294 295 296 297 297 298 298 299 299 300 300 301 302 302 303 304 304 305 306 308 309 310 310 310 310 309 307 304 302 300 298 297 298 299 301 302 303 303 302 302 303 304 305 307 309 312 315 318 320 322 323 323 323 322 321 319 319 318 317 316 315 314 314 313 313
271 273 274 275 275 276 277 279 280 281 282 284 285 286 287 288 289 290 292 293 294 295 296 296 296 297 297 298 299 300 300 301 302 303 303 304 305 306 308 309 310 310 310 310 309 308 305 303 301 300 299 299 300 301 302 302 302 302 302 303 304 306 308 311 314 317 320 322 323 324 324 324 323 322 320 319 318 317 316 315 314 313 313 312 312
271 272 273 274 275 275 277 278 279 281 282 283 284 285 286 287 289 290 292 293 294 294 295 295 295 296 297 298 299 299 300 301 302 302 303 304 306 308 309 310 311 311 311 310 309 307 305 303 301 301 301 301 302 302 303 303 303 304 305 306 308 311 313 315 318 320 321 322 323 324 325 325 324 324 324 323 323 321 319 318 317 316 315 314 314
270 271 272 272 273 275 276 277 279 280 281 282 283 284 285 286 288 290 291 292 293 293 293 294 295 296 297 297 298 299 299 300 301 302 303 305 307 308 310 311 312 312 312 311 309 307 304 303 302 301 301 302 302 303 304 305 306 308 309 311 312 314 315 316 317 318 319 320 321 322 323 324 325 326 327 328 328 327 326 325 324 322 321 319 318
269 270 270 271 272 273 275 276 278 279 280 281 282 283 284 286 288 289 290 291 292 292 293 293 295 296 296 297 297 298 299 300 301 302 304 306 307 309 312 313 313 313 312 310 308 306 304 302 302 302 303 304 305 306 307 309 310 311 312 312 312 312 313 314 315 316 317 318 320 321 322 323 325 327 328 329 330 330 330 331 330 329 327 325 322
269 269 270 271 272 273 274 276 278 279 280 280 281 282 284 285 287 288 289 290 291 291 292 293 294 295 296 296 297 298 299 300 302 303 305 307 309 312 314 315 315 313 311 309 308 307 306 305 305 306 306 307 309 310 311 312 313 313 312 311 311 312 312 313 314 315 316 318 320 321 323 324 326 328 329 330 331 331 332 332 332 332 331 329 326
269 270 270 271 271 273 275 276 278 279 280 280 281 282 284 285 287 288 288 289 289 290 292 293 294 294 295 296 297 297 299 301 302 304 306 309 312 314 316 317 317 315 313 311 311 310 309 309 309 309 310 311 312 313 313 313 312 311 310 311 311 311 312 312 313 314 316 317 319 321 323 325 327 329 331 332 333 333 333 333 332 331 331 330 329
269 269 270 270 271 273 275 276 278 279 280 280 281 282 284 285 286 286 287 288 289 290 291 292 293 294 294 295 296 298 300 302 304 306 309 312 315 317 318 319 319 317 314 313 312 312 311 311 310 311 311 312 312 312 311 310 309 309 309 309 309 309 310 310 311 312 314 316 317 320 323 326 328 330 333 334 334 333 333 333 332 332 331 331 330
268 268 269 270 271 273 275 276 278 278 279 279 280 282 283 284 284 285 286 287 288 290 291 291 292 293 294 295 297 300 302 305 308 311 314 317 319 320 320 321 319 317 314 313 312 311 311 310 309 309 309 309 308 307 306 306 306 306 306 306 306 307 307 308 309 310 312 314 317 319 322 325 327 330 332 332 332 332 332 333 333 333 333 333 332
267 267 268 269 271 273 275 276 277 277 278 278 279 281 281 282 283 284 285 287 288 289 290 290 290 291 293 296 299 302 306 309 312 315 318 320 321 321 319 318 318 315 312 310 309 308 307 305 304 303 304 303 302 303 304 305 305 305 305 306 306 306 307 308 309 310 312 313 315 318 320 322 324 326 328 329 331 332 332 333 333 334 334 334 333
267 268 268 270 272 273 274 275 275 276 276 277 278 279 280 281 283 284 285 287 288 288 288 289 289 291 293 297 301 305 309 312 314 316 318 319 320 319 317 315 315 314 310 308 306 305 304 303 302 301 302 301 302 303 304 305 305 305 306 307 307 307 307 308 308 309 310 311 313 315 317 318 320 323 325 328 330 331 332 333 333 333 334 334 334
267 268 269 271 272 273 274 274 274 275 275 277 278 279 281 282 283 284 285 286 287 287 288 288 289 292 295 299 304 308 311 312 314 315 317 317 317 317 315 313 312 312 310 307 305 303 303 303 303 303 303 303 304 304 304 304 304 304 304 304 304 304 305 305 306 307 308 309 310 312 314 317 319 322 325 327 329 331 332 333 333 333 334 334 334
267 268 270 271 272 272 273 273 274 275 276 277 279 280 281 282 283 284 284 285 286 287 287 288 291 295 299 303 307 309 310 311 313 314 315 315 315 314 313 311 311 311 311 308 305 303 302 302 302 303 303 303 303 302 301 301 300 300 300 300 301 301 302 303 304 305 306 308 310 312 315 318 321 324 326 328 330 331 332 333 333 333 334 335 335
267 268 269 270 270 271 272 272 274 275 276 277 279 280 280 281 282 282 283 284 286 286 287 290 294 298 303 306 308 309 310 311 311 312 313 313 312 312 311 310 309 309 310 309 306 303 301 301 301 301 301 302 302 301 300 299 299 299 299 299 299 300 301 303 304 306 308 310 312 315 318 320 323 325 327 329 330 330 331 332 333 334 334 335 335
266 267 268 269 270 270 271 272 274 275 276 277 278 278 278 279 280 282 283 284 285 287 289 293 297 301 304 306 307 308 309 309 310 310 310 310 309 309 309 308 308 307 307 306 305 303 301 300 300 300 300 300 300 300 299 299 298 298 298 298 299 299 301 304 306 308 310 312 315 318 320 322 324 326 328 329 329 330 331 332 333 334 334 334 334
265 266 267 268 269 270 271 272 273 274 275 276 276 277 278 279 281 283 283 285 287 290 293 296 299 302 304 305 306 307 308 308 308 308 308 307 307 306 307 307 307 307 305 305 305 305 304 301 299 298 298 298 298 298 298 298 298 298 299 299 300 301 303 305 307 310 312 314 317 319 321 322 325 326 327 328 329 330 331 331 332 332 332 333 333
265 266 267 268 268 269 270 272 273 274 274 275 275 277 278 280 281 282 283 286 290 293 295 298 300 302 303 304 305 305 306 307 306 306 306 306 305 305 305 305 305 305 304 304 304 305 306 305 301 299 298 298 298 298 299 299 300 300 301 302 303 304 305 307 309 312 314 316 318 319 321 323 325 326 327 328 329 330 330 330 330 330 331 332 333
268 269 269 270 270 271 272 273 273 274 274 274 275 277 278 279 280 282 284 288 291 293 296 298 299 301 302 303 303 304 304 304 304 303 303 304 303 303 303 302 302 302 302 303 304 304 305 306 305 302 301 301 301 300 301 302 303 303 304 305 306 307 308 310 311 313 314 316 318 320 321 323 325 326 327 328 329 329 329 329 329 329 330 331 332
273 273 272 272 273 273 272 272 272 271 271 272 273 275 276 278 280 282 286 289 291 293 295 297 298 299 300 301 301 300 300 301 301 301 301 301 301 301 300 299 299 300 301 302 303 304 305 306 306 306 305 304 304 303 303 304 305 305 306 307 309 310 311 312 312 313 315 316 318 320 321 323 324 326 327 327 328 328 328 328 328 328 329 330 331
273 273 272 271 271 270 268 266 266 267 268 270 271 273 275 277 279 283 286 288 290 291 294 296 297 298 299 298 297 296 296 297 298 298 298 298 298 299 298 297 297 298 300 301 301 303 304 306 307 307 307 307 307 306 306 307 307 307 307 308 309 310 311 312 313 314 315 316 318 320 321 323 324 325 326 326 327 327 327 327 327 327 328 329 330
270 269 268 267 266 264 263 263 263 264 266 268 271 273 275 277 279 282 285 287 288 290 292 295 297 297 297 296 294 293 293 294 295 295 295 295 296 297 297 295 295 295 297 298 299 301 303 304 305 306 307 308 309 309 309 309 308 308 308 308 309 310 311 311 312 313 314 316 317 319 320 322 323 324 325 325 326 326 326 326 326 326 327 328 328
266 264 264 263 261 260 260 260 261 263 266 269 271 274 276 277 279 282 285 286 287 288 291 294 295 296 294 293 290 289 290 292 292 293 293 293 294 295 295 294 293 294 295 296 298 299 300 301 303 304 305 307 307 308 309 309 308 308 308 308 308 309 310 311 311 312 313 315 316 317 319 320 322 323 323 324 324 325 324 324 325 326 326 327 327
265 264 263 263 262 261 261 261 262 265 268 271 273 274 275 277 279 282 285 286 287 289 291 293 294 293 291 288 287 287 288 290 290 290 290 291 293 294 294 293 292 293 294 295 296 297 298 299 300 302 303 304 304 306 307 308 308 307 307 307 307 308 309 309 310 310 312 313 315 316 317 318 319 320 321 322 323 323 323 323 324 325 326 326 326
266 266 265 265 265 265 265 265 266 268 271 273 275 275 276 277 279 282 284 286 287 289 290 291 291 290 287 285 285 286 287 288 288 289 289 289 291 293 294 293 292 292 293 294 294 295 296 297 298 299 300 301 302 304 305 306 307 306 306 306 306 307 307 308 308 309 310 312 313 313 314 316 317 318 319 320 321 322 322 323 324 325 325 325 325
266 266 265 264 265 266 266 267 268 270 272 274 276 276 277 277 279 281 284 286 287 289 290 290 290 288 284 282 283 284 285 286 287 287 288 288 289 291 293 292 291 291 292 293 293 294 295 296 297 297 299 300 301 302 303 305 306 306 306 306 306 306 307 307 308 308 309 310 311 311 312 314 316 317 318 320 321 321 321 322 323 324 324 324 324
266 266 265 263 263 263 264 265 267 269 272 274 276 277 277 278 279 282 284 285 286 288 289 290 288 285 281 280 282 283 283 284 285 286 286 287 288 290 292 292 292 291 291 291 292 293 294 295 295 296 297 299 300 300 301 303 304 305 306 306 306 306 307 307 307 308 309 309 309 310 311 313 314 316 318 319 320 320 321 321 322 323 323 323 323
264 265 265 263 262 262 263 264 265 268 271 274 277 278 279 279 281 282 283 284 284 286 287 286 283 281 280 280 281 281 282 282 283 284 285 285 286 288 291 293 294 293 293 292 291 291 292 293 294 296 297 297 298 299 300 301 303 304 305 306 306 306 306 306 306 307 308 308 309 309 311 312 314 315 317 318 319 319 320 320 321 322 322 322 322
263 264 264 262 260 259 260 263 266 270 273 276 278 279 280 280 281 282 283 284 285 286 286 283 280 279 279 279 279 280 280 280 281 282 283 285 286 288 291 294 295 295 295 293 291 290 291 292 293 295 296 296 296 298 298 299 300 302 304 305 306 306 306 305 306 306 307 308 308 309 311 312 313 315 316 317 318 318 319 319 320 321 321 321 321
262 264 264 262 261 261 263 266 270 273 275 277 278 279 280 281 281 282 283 283 284 284 283 280 277 276 277 278 277 278 278 279 280 281 283 284 286 288 291 293 294 295 296 295 292 290 290 291 292 293 294 294 295 297 298 298 299 300 303 304 305 305 305 305 306 306 307 308 308 309 311 312 313 314 316 316 317 317 318 318 319 320 320 320 320
261 263 265 266 266 267 269 271 273 275 276 277 278 278 279 281 281 281 282 283 282 281 279 278 276 275 276 277 276 277 278 279 280 281 282 284 285 287 290 292 293 294 295 296 293 291 290 291 292 293 293 294 295 296 297 297 298 299 301 303 304 304 305 305 306 307 307 308 308 309 310 311 313 314 315 316 316 316 317 317 318 319 319 319 320
264 265 267 268 269 270 271 272 274 275 276 277 277 278 279 280 281 281 281 282 280 278 276 275 275 275 276 276 276 277 278 279 280 281 281 283 284 286 289 291 292 293 294 296 294 292 292 293 293 294 294 294 295 295 296 296 297 298 300 302 303 304 305 306 306 307 307 308 308 309 310 312 313 314 314 315 315 316 316 317 317 318 318 319 319
266 267 268 269 269 270 272 273 274 274 276 277 278 279 279 280 280 280 281 280 278 275 273 273 273 274 275 276 276 277 278 279 279 280 280 282 284 286 288 289 290 292 293 295 294 293 292 293 294 294 294 294 295 295 295 296 296 298 299 301 303 304 305 305 306 306 307 307 308 309 311 312 313 314 314 314 314 315 316 316 317 317 318 319 319
267 267 268 269 269 270 271 272 273 274 275 277 278 278 279 280 280 279 277 275 273 272 271 271 271 272 273 274 275 277 277 278 278 279 280 282 284 285 286 288 289 290 292 293 294 294 293 293 294 294 294 294 294 294 295 295 297 298 300 301 302 303 304 305 305 306 306 307 309 310 311 312 313 313 313 313 314 315 315 316 316 317 318 318 318
266 266 267 268 269 270 271 272 273 274 276 277 277 278 279 279 278 276 272 270 269 269 269 270 271 272 272 273 274 275 277 277 278 279 280 281 283 284 285 287 288 289 290 291 293 294 295 294 293 294 294 294 295 295 296 297 297 298 299 300 301 302 303 304 304 305 307 308 310 311 311 312 312 313 313 313 314 315 315 315 316 317 318 318 317
265 266 266 267 268 269 270 271 273 274 276 277 278 278 277 276 274 272 270 268 268 268 269 271 272 273 273 272 272 274 276 277 278 278 279 280 282 283 285 286 287 288 289 289 291 294 295 294 293 293 294 295 296 297 298 298 298 298 299 300 301 302 303 304 305 306 308 310 311 311 311 311 312 312 312 313 314 315 315 315 316 317 317 317 317
264 265 266 267 268 269 269 271 272 273 275 276 277 276 274 272 271 270 268 268 268 269 270 271 272 273 273 272 271 272 274 276 277 278 279 280 282 283 284 285 286 287 288 289 290 293 294 293 293 293 295 296 296 297 298 298 299 299 299 300 301 302 303 304 306 308 309 310 310 310 311 311 311 312 312 313 314 314 315 316 316 317 317 316 316
263 264 264 266 267 268 269 270 271 273 274 274 273 271 269 268 268 267 267 267 268 269 270 271 271 272 272 271 270 271 274 276 277 278 279 280 281 282 284 285 286 286 288 289 290 292 292 292 292 293 294 295 296 297 298 299 299 300 300 301 302 303 305 306 308 309 310 310 310 310 310 310 310 311 312 313 314 314 315 316 316 316 316 315 315
262 263 264 264 266 267 268 269 270 272 272 270 267 266 265 265 265 265 266 266 268 269 270 271 272 272 271 270 270 272 274 275 276 277 277 278 280 281 283 284 285 286 287 288 289 291 291 292 292 293 294 295 296 297 298 299 300 300 301 302 304 305 307 308 309 309 309 309 309 309 309 310 310 312 312 313 314 314 315 316 316 316 315 314 314
262 263 264 265 266 267 268 269 270 271 269 267 264 263 263 264 265 265 266 267 268 270 271 272 272 271 270 270 271 272 273 274 275 276 277 278 279 280 282 283 284 286 286 287 289 290 291 292 293 294 295 296 297 297 298 299 300 301 302 304 305 307 308 308 308 308 309 309 309 309 309 310 311 312 312 313 314 315 315 315 315 315 314 313 313
262 263 264 265 266 267 268 269 269 269 266 264 262 262 263 264 265 266 267 268 270 271 273 273 273 272 271 271 271 272 272 274 275 276 276 278 279 280 281 282 284 285 286 287 289 290 292 293 294 295 296 297 298 298 299 299 301 302 303 305 306 307 307 308 308 308 308 308 308 308 309 310 311 312 313 313 314 315 315 315 314 313 313 313 313
263 263 264 265 266 266 267 268 268 266 263 261 260 261 262 264 265 266 267 269 271 272 272 273 273 272 272 272 272 272 273 274 275 276 277 278 279 280 281 282 283 284 286 288 289 291 293 294 295 296 297 298 298 299 299 300 302 303 304 305 306 306 306 307 307 307 307 307 308 309 310 311 311 312 313 313 314 314 314 314 313 312 312 313 313
Height
10769 10768 10768 10768 10767 10765 10763 10762 10761 10759 10758 10757 10756 10754 10751 10750 10748 10746 10744 10741 10738 10737 10735 10732 10729 10727 10724 10720 10716 10712 10709 10706 10701 10698 10695 10690 10686 10682 10678 10674 10671 10667 10663 10659 10654 10648 10643 10637 10631 10624 10616 10610 10603 10595 10584 10576 10570 10564 10556 10550 10546 10541 10535 10529 10524 10520 10515 10509 10502 10496 10492 10487 10482 10478 10472 10467 10462 10457 10452 10446 10442 10437 10434 10431 10429
10762 10761 10761 10761 10760 10758 10756 10755 10753 10752 10751 10749 10748 10746 10744 10742 10740 10738 10736 10732 10730 10729 10726 10723 10721 10718 10715 10711 10707 10704 10700 10697 10693 10689 10686 10681 10677 10673 10668 10664 10661 10657 10653 10649 10643 10637 10633 10628 10621 10614 10606 10599 10591 10582 10573 10564 10559 10553 10546 10540 10536 10532 10526 10520 10515 10511 10506 10500 10494 10488 10483 10478 10473 10468 10463 10459 10454 10449 10444 10439 10435 10431 10427 10424 10422
10755 10754 10754 10753 10752 10751 10749 10747 10746 10746 10744 10742 10740 10738 10736 10734 10732 10731 10728 10725 10722 10720 10717 10715 10711 10709 10706 10702 10699 10696 10692 10688 10684 10680 10676 10672 10669 10664 10660 10656 10651 10647 10643 10638 10634 10628 10622 10617 10611 10604 10597 10589 10580 10572 10565 10557 10549 10543 10536 10530 10526 10524 10519 10513 10508 10503 10498 10492 10486 10481 10475 10470 10465 10460 10455 10450 10446 10442 10438 10434 10430 10425 10420 10417 10414
10746 10746 10746 10745 10744 10742 10740 10739 10739 10738 10736 10734 10732 10730 10729 10727 10725 10723 10721 10717 10715 10712 10709 10706 10703 10700 10697 10694 10691 10687 10683 10679 10675 10671 10667 10662 10659 10655 10650 10647 10642 10637 10633 10628 10623 10618 10613 10608 10602 10594 10587 10579 10571 10562 10555 10547 10540 10534 10528 10522 10518 10515 10511 10506 10500 10495 10490 10484 10479 10473 10468 10463 10457 10452 10448 10444 10441 10437 10433 10428 10424 10419 10413 10408 10405
10738 10738 10737 10736 10735 10734 10732 10731 10731 10730 10728 10726 10725 10723 10722 10720 10718 10715 10713 10710 10708 10704 10701 10698 10695 10692 10689 10685 10682 10678 10674 10671 10666 10662 10657 10653 10649 10644 10639 10636 10632 10628 10623 10618 10612 10607 10602 10597 10591 10584 10576 10568 10560 10551 10542 10535 10529 10525 10520 10515 10511 10507 10502 10497 10492 10487 10482 10476 10471 10466 10461 10456 10451 10447 10443 10440 10436 10431 10427 10421 10416 10411 10406 10400 10396
10729 10730 10729 10728 10727 10725 10724 10723 10722 10721 10720 10719 10718 10716 10714 10712 10710 10708 10705 10703 10700 10697 10693 10690 10687 10684 10681 10677 10674 10669 10665 10661 10657 10653 10648 10643 10638 10633 10628 10625 10621 10617 10613 10609 10603 10597 10591 10585 10578 10572 10566 10558 10549 10541 10532 10524 10520 10517 10511 10506 10503 10499 10494 10488 10483 10478 10473 10469 10464 10459 10454 10450 10446 10442 10438 10434 10429 10424 10419 10413 10407 10403 10398 10393 10388
10722 10721 10721 10720 10718 10716 10715 10714 10713 10712 10712 10711 10709 10707 10706 10704 10702 10699 10697 10695 10692 10688 10685 10682 10679 10676 10672 10668 10665 10660 10656 10651 10647 10643 10638 10633 10628 10623 10618 10615 10611 10607 10602 10598 10593 10587 10581 10575 10567 10561 10555 10549 10542 10533 10526 10518 10512 10508 10502 10497 10495 10491 10486 10480 10475 10470 10466 10462 10457 10453 10448 10444 10440 10436 10431 10425 10421 10416 10410 10405 10400 10395 10390 10385 10379
10713 10713 10712 10711 10709 10707 10706 10705 10704 10704 10703 10702 10701 10699 10697 10695 10693 10691 10689 10687 10683 10679 10676 10673 10670 10667 10663 10659 10655 10651 10647 10642 10638 10634 10628 10623 10618 10613 10608 10605 10601 10597 10593 10588 10582 10576 10570 10564 10557 10551 10544 10538 10531 10524 10517 10512 10507 10501 10495 10490 10487 10483 10478 10473 10468 10464 10459 10455 10451 10447 10443 10438 10433 10428 10422 10417 10413 10408 10402 10398 10392 10387 10382 10377 10372
10705 10704 10702 10701 10700 10699 10698 10697 10696 10696 10695 10694 10692 10690 10688 10686 10684 10683 10681 10678 10674 10670 10667 10664 10661 10657 10653 10650 10646 10641 10637 10633 10629 10624 10619 10613 10608 10602 10597 10593 10589 10586 10582 10577 10571 10565 10560 10553 10547 10540 10533 10526 10520 10514 10509 10505 10501 10496 10490 10484 10480 10475 10471 10466 10462 10458 10454 10450 10446 10441 10436 10430 10425 10420 10414 10409 10405 10400 10394 10389 10384 10379 10374 10371 10366
10696 10695 10694 10693 10692 10690 10690 10689 10689 10688 10686 10685 10684 10682 10680 10677 10676 10675 10672 10669 10665 10661 10658 10655 10651 10648 10644 10640 10636 10632 10628 10623 10618 10613 10608 10602 10596 10590 10585 10581 10577 10574 10570 10565 10559 10553 10548 10541 10536 10531 10525 10519 10513 10509 10505 10500 10495 10490 10485 10479 10473 10469 10465 10461 10457 10453 10449 10444 10439 10433 10428 10423 10418 10413 10407 10402 10397 10392 10387 10382 10378 10373 10368 10364 10360
10687 10686 10685 10685 10683 10682 10681 10681 10680 10679 10678 10677 10675 10673 10671 10669 10668 10666 10664 10660 10656 10652 10649 10645 10642 10638 10635 10631 10626 10622 10619 10614 10608 10602 10596 10590 10584 10578 10574 10570 10566 10562 10558 10553 10548 10542 10536 10530 10525 10521 10517 10512 10507 10503 10499 10493 10488 10484 10479 10474 10469 10464 10460 10456 10451 10447 10442 10437 10432 10426 10422 10417 10411 10406 10400 10395 10390 10385 10381 10376 10372 10367 10362 10357 10353
10678 10677 10677 10676 10674 10673 10673 10672 10672 10671 10670 10669 10667 10664 10662 10660 10660 10658 10655 10652 10647 10643 10639 10635 10632 10629 10625 10621 10617 10612 10608 10603 10598 10591 10585 10580 10573 10567 10562 10558 10555 10551 10547 10542 10537 10531 10526 10519 10514 10511 10507 10502 10498 10495 10491 10486 10482 10477 10473 10469 10464 10459 10455 10450 10445 10441 10436 10431 10426 10421 10416 10411 10405 10400 10395 10390 10385 10380 10375 10371 10366 10361 10356 10351 10346
10669 10668 10667 10666 10664 10664 10664 10664 10663 10662 10662 10660 10657 10655 10653 10652 10651 10650 10647 10644 10638 10634 10629 10625 10622 10619 10615 10612 10608 10603 10599 10594 10588 10582 10576 10570 10564 10558 10552 10547 10544 10540 10536 10532 10527 10521 10516 10510 10505 10501 10497 10493 10488 10485 10482 10478 10474 10470 10466 10462 10457 10453 10449 10445 10440 10436 10431 10426 10421 10416 10411 10406 10401 10395 10390 10386 10381 10376 10371 10366 10361 10355 10350 10344 10338
10659 10658 10657 10656 10655 10654 10655 10655 10655 10654 10653 10651 10648 10646 10644 10644 10643 10642 10639 10635 10630 10625 10620 10616 10613 10609 10605 10602 10599 10595 10591 10586 10580 10574 10568 10562 10556 10550 10544 10538 10534 10530 10526 10522 10518 10513 10508 10502 10498 10494 10490 10486 10481 10477 10473 10470 10466 10462 10458 10455 10451 10447 10444 10440 10436 10431 10427 10422 10417 10412 10407 10401 10396 10391 10386 10381 10376 10371 10365 10360 10355 10349 10343 10337 10331
10649 10648 10647 10646 10645 10645 10645 10646 10646 10646 10644 10642 10639 10637 10636 10636 10635 10633 10630 10627 10622 10616 10611 10607 10603 10599 10596 10593 10589 10586 10581 10576 10571 10565 10560 10554 10548 10542 10536 10530 10525 10521 10517 10513 10509 10506 10501 10496 10491 10487 10483 10479 10475 10471 10467 10463 10460 10456 10453 10449 10446 10442 10439 10435 10431 10426 10422 10417 10412 10407 10402 10397 10391 10386 10381 10376 10370 10365 10359 10354 10348 10342 10336 10330 10324
10639 10637 10636 10635 10634 10635 10636 10637 10637 10636 10634 10631 10628 10627 10627 10627 10625 10623 10621 10617 10612 10608 10603 10598 10593 10589 10586 10582 10579 10575 10570 10566 10561 10556 10551 10545 10539 10533 10528 10523 10517 10513 10510 10505 10501 10497 10493 10489 10484 10479 10476 10472 10469 10465 10461 10458 10455 10451 10448 10445 10441 10437 10433 10429 10425 10421 10416 10411 10406 10402 10397 10391 10386 10381 10375 10370 10364 10358 10352 10347 10340 10335 10330 10323 10317
10627 10626 10625 10623 10623 10625 10627 10628 10628 10626 10624 10621 10618 10617 10617 10617 10615 10613 10611 10608 10603 10599 10595 10589 10584 10580 10576 10572 10568 10564 10560 10556 10551 10546 10541 10536 10530 10524 10520 10515 10511 10506 10501 10497 10493 10488 10485 10481 10477 10472 10469 10466 10463 10459 10456 10453 10450 10446 10443 10439 10435 10431 10427 10423 10419 10415 10410 10406 10401 10396 10391 10385 10380 10375 10369 10363 10357 10351 10345 10340 10334 10328 10322 10316 10310
10615 10614 10612 10611 10613 10616 10618 10619 10618 10616 10614 10610 10607 10607 10608 10607 10605 10603 10601 10598 10594 10591 10587 10581 10575 10571 10567 10563 10559 10554 10550 10546 10541 10536 10531 10526 10520 10515 10510 10507 10503 10499 10495 10490 10486 10482 10478 10475 10471 10467 10464 10460 10457 10454 10451 10447 10444 10441 10437 10433 10429 10425 10421 10417 10413 10409 10404 10400 10395 10390 10385 10379 10373 10368 10362 10356 10350 10344 10339 10334 10327 10321 10314 10307 10301
10601 10600 10600 10601 10604 10607 10609 10610 10608 10606 10603 10599 10598 10598 10598 10596 10594 10593 10591 10589 10585 10581 10577 10573 10567 10562 10557 10553 10549 10544 10540 10536 10530 10525 10521 10516 10510 10504 10500 10498 10495 10492 10489 10485 10481 10477 10473 10470 10467 10463 10460 10456 10453 10450 10446 10443 10439 10435 10432 10429 10424 10420 10416 10412 10407 10403 10398 10393 10388 10383 10378 10372 10366 10362 10356 10350 10344 10338 10332 10327 10320 10312 10306 10298 10291
10587 10587 10588 10592 10596 10598 10599 10599 10597 10594 10591 10589 10588 10588 10587 10586 10584 10583 10582 10579 10575 10570 10566 10563 10559 10554 10549 10545 10541 10535 10530 10525 10520 10515 10511 10507 10502 10497 10493 10490 10487 10484 10482 10479 10475 10472 10469 10465 10462 10459 10456 10452 10448 10445 10442 10438 10434 10429 10425 10422 10417 10412 10408 10404 10400 10395 10390 10385 10381 10376 10371 10365 10360 10355 10349 10343 10336 10329 10323 10318 10311 10303 10296 10289 10282
10575 10575 10577 10583 10586 10588 10588 10587 10585 10582 10580 10579 10578 10577 10576 10576 10574 10572 10571 10569 10565 10560 10555 10552 10549 10546 10543 10539 10534 10528 10521 10517 10512 10508 10504 10500 10496 10491 10486 10483 10480 10477 10474 10471 10468 10465 10462 10459 10456 10452 10449 10445 10441 10437 10434 10430 10426 10421 10417 10413 10408 10404 10400 10396 10392 10387 10383 10378 10373 10368 10363 10358 10352 10347 10341 10335 10328 10320 10313 10307 10301 10293 10286 10279 10272
10564 10564 10566 10572 10575 10576 10576 10574 10572 10570 10569 10568 10568 10567 10566 10565 10563 10562 10560 10558 10555 10550 10545 10542 10539 10536 10534 10531 10527 10521 10514 10509 10505 10501 10497 10493 10489 10485 10481 10477 10473 10470 10467 10463 10460 10457 10454 10450 10447 10444 10440 10437 10433 10429 10425 10421 10417 10413 10409 10405 10400 10396 10393 10389 10385 10380 10375 10370 10365 10360 10355 10349 10344 10339 10332 10326 10319 10312 10304 10298 10291 10284 10276 10269 10262
10552 10552 10556 10560 10563 10564 10563 10561 10560 10559 10558 10558 10558 10557 10556 10554 10552 10551 10549 10547 10545 10541 10536 10532 10530 10527 10524 10520 10517 10513 10507 10502 10498 10494 10490 10487 10483 10479 10476 10471 10467 10463 10460 10456 10454 10451 10448 10444 10441 10438 10434 10431 10427 10423 10419 10414 10410 10406 10402 10398 10394 10389 10386 10382 10377 10372 10367 10362 10357 10351 10346 10340 10335 10329 10323 10316 10310 10303 10296 10289 10282 10275 10267 10259 10251
10539 10542 10545 10546 10550 10552 10550 10548 10548 10548 10547 10548 10547 10546 10544 10543 10541 10539 10537 10536 10534 10531 10528 10524 10520 10517 10514 10510 10507 10504 10500 10495 10490 10486 10482 10479 10475 10472 10468 10465 10461 10457 10453 10450 10447 10444 10441 10438 10435 10432 10428 10424 10421 10416 10412 10407 10403 10398 10395 10391 10386 10382 10378 10374 10369 10364 10359 10353 10348 10342 10336 10330 10325 10320 10313 10307 10301 10294 10287 10280 10273 10265 10257 10250 10242
10529 10532 10533 10534 10537 10538 10537 10537 10536 10536 10536 10536 10536 10534 10533 10532 10530 10528 10526 10525 10524 10522 10519 10514 10510 10507 10504 10501 10498 10495 10491 10487 10483 10478 10475 10471 10467 10464 10461 10458 10456 10452 10448 10444 10440 10437 10434 10431 10428 10424 10421 10417 10413 10409 10405 10400 10395 10391 10387 10382 10378 10373 10370 10365 10360 10355 10350 10344 10339 10333 10327 10321 10316 10310 10304 10298 10291 10284 10277 10271 10263 10256 10248 10241 10234
10520 10521 10521 10522 10524 10525 10525 10525 10524 10524 10525 10524 10524 10522 10521 10521 10519 10517 10515 10514 10512 10511 10508 10504 10500 10496 10493 10491 10488 10486 10483 10479 10475 10471 10467 10463 10460 10457 10453 10450 10447 10444 10440 10437 10434 10430 10427 10424 10420 10417 10413 10409 10405 10402 10397 10392 10387 10383 10379 10374 10369 10365 10361 10356 10351 10346 10340 10335 10329 10323 10317 10312 10306 10300 10294 10288 10282 10275 10268 10261 10255 10248 10241 10234 10226
10509 10510 10509 10509 10511 10512 10513 10513 10512 10513 10513 10512 10512 10511 10510 10510 10508 10506 10504 10503 10501 10499 10497 10493 10490 10487 10483 10480 10478 10475 10473 10470 10467 10463 10458 10454 10451 10448 10445 10442 10438 10435 10432 10429 10426 10423 10419 10416 10413 10409 10405 10401 10397 10394 10390 10385 10379 10374 10370 10365 10360 10356 10352 10347 10342 10337 10331 10325 10320 10314 10308 10302 10296 10291 10285 10278 10272 10265 10259 10253 10247 10239 10232 10225 10216
10494 10495 10495 10495 10497 10499 10500 10500 10500 10500 10500 10499 10499 10499 10499 10498 10497 10496 10494 10492 10490 10488 10485 10483 10480 10477 10474 10471 10468 10466 10464 10461 10459 10455 10450 10447 10443 10439 10436 10433 10430 10426 10423 10420 10417 10414 10410 10408 10404 10400 10397 10393 10389 10385 10381 10376 10371 10365 10361 10356 10350 10346 10342 10338 10333 10327 10322 10316 10310 10304 10298 10293 10287 10281 10275 10269 10263 10257 10250 10243 10237 10229 10222 10214 10207
10479 10481 10481 10482 10484 10485 10486 10487 10487 10487 10488 10488 10488 10487 10487 10486 10486 10485 10483 10481 10479 10477 10475 10473 10471 10468 10465 10462 10459 10457 10454 10452 10449 10446 10443 10439 10436 10432 10429 10425 10422 10418 10415 10411 10408 10404 10401 10398 10395 10391 10387 10383 10379 10376 10372 10367 10362 10356 10351 10347 10341 10336 10332 10328 10323 10318 10312 10306 10301 10295 10289 10283 10277 10272 10266 10260 10253 10247 10240 10233 10226 10219 10211 10204 10196
10467 10468 10469 10471 10472 10473 10474 10475 10475 10476 10476 10476 10476 10476 10476 10475 10474 10474 10472 10470 10469 10467 10465 10463 10461 10459 10457 10454 10451 10448 10445 10443 10440 10437 10434 10431 10427 10424 10421 10417 10414 10411 10407 10403 10400 10396 10392 10389 10385 10381 10378 10374 10370 10366 10362 10358 10353 10348 10342 10338 10332 10327 10322 10317 10312 10308 10302 10297 10291 10286 10279 10273 10268 10262 10256 10249 10243 10236 10229 10222 10215 10208 10201 10193 10185
10456 10458 10459 10460 10461 10462 10463 10464 10465 10465 10465 10464 10464 10464 10464 10463 10463 10463 10461 10460 10459 10457 10456 10454 10452 10449 10447 10444 10442 10439 10436 10434 10431 10427 10424 10421 10418 10415 10412 10408 10405 10402 10399 10396 10392 10388 10384 10381 10376 10373 10369 10364 10360 10356 10352 10348 10344 10339 10334 10329 10323 10317 10313 10307 10302 10297 10292 10287 10281 10276 10270 10264 10258 10253 10246 10240 10234 10227 10220 10212 10204 10197 10190 10183 10175
10445 10447 10449 10449 10451 10452 10453 10453 10453 10453 10453 10453 10452 10452 10452 10452 10451 10451 10450 10450 10449 10447 10446 10444 10442 10440 10437 10434 10431 10429 10426 10424 10421 10418 10415 10411 10408 10405 10402 10398 10396 10393 10389 10387 10383 10379 10376 10372 10368 10364 10360 10356 10352 10348 10343 10339 10335 10331 10326 10320 10314 10308 10303 10297 10292 10287 10282 10277 10271 10266 10260 10255 10249 10244 10237 10231 10225 10218 10211 10202 10194 10187 10180 10172 10165
10434 10436 10437 10439 10441 10441 10442 10442 10442 10442 10442 10441 10441 10441 10441 10440 10440 10439 10438 10438 10437 10437 10435 10434 10432 10430 10427 10423 10421 10418 10416 10413 10411 10408 10405 10401 10398 10395 10392 10388 10386 10382 10379 10376 10373 10370 10366 10362 10358 10355 10351 10347 10343 10339 10334 10330 10326 10322 10317 10311 10306 10300 10294 10288 10283 10277 10272 10267 10261 10256 10250 10245 10239 10234 10228 10221 10215 10208 10201 10192 10184 10176 10169 10161 10154
10424 10425 10426 10427 10428 10429 10430 10431 10430 10430 10430 10430 10430 10430 10430 10429 10429 10428 10428 10427 10426 10425 10425 10424 10422 10419 10416 10413 10410 10407 10405 10402 10400 10397 10394 10392 10388 10385 10382 10378 10375 10372 10369 10366 10363 10359 10356 10352 10348 10345 10341 10337 10333 10329 10324 10320 10316 10312 10307 10302 10297 10291 10285 10279 10273 10268 10262 10257 10251 10246 10240 10235 10229 10223 10217 10211 10205 10197 10189 10181 10173 10165 10157 10150 10142
10412 10414 10416 10416 10417 10417 10418 10418 10417 10418 10418 10418 10418 10419 10418 10418 10417 10417 10416 10415 10413 10412 10412 10411 10409 10407 10405 10401 10399 10397 10394 10391 10389 10386 10384 10381 10378 10374 10371 10368 10365 10361 10358 10355 10352 10349 10345 10341 10337 10334 10330 10326 10322 10318 10314 10310 10305 10301 10297 10292 10287 10281 10275 10269 10264 10258 10253 10248 10242 10236 10230 10224 10218 10212 10206 10200 10193 10185 10177 10169 10161 10153 10145 10137 10130
10399 10401 10403 10405 10406 10406 10406 10406 10406 10406 10406 10407 10408 10408 10408 10407 10406 10404 10404 10403 10402 10401 10400 10398 10396 10395 10393 10391 10388 10386 10383 10380 10377 10375 10372 10370 10366 10363 10360 10357 10354 10351 10347 10344 10341 10337 10334 10330 10326 10322 10319 10315 10311 10307 10303 10299 10294 10290 10285 10280 10275 10270 10265 10259 10253 10248 10243 10237 10231 10225 10220 10213 10207 10200 10194 10188 10180 10172 10164 10157 10149 10141 10133 10125 10118
10387 10389 10391 10393 10394 10394 10395 10395 10395 10396 10396 10395 10396 10396 10397 10396 10394 10392 10391 10390 10390 10389 10389 10387 10385 10383 10381 10380 10378 10375 10372 10369 10366 10363 10361 10358 10355 10352 10349 10346 10343 10339 10336 10332 10329 10326 10322 10318 10315 10311 10307 10304 10300 10296 10291 10287 10283 10279 10274 10269 10264 10259 10254 10248 10243 10238 10233 10227 10221 10215 10209 10202 10195 10189 10183 10176 10168 10160 10152 10145 10137 10129 10121 10113 10105
10373 10376 10378 10380 10381 10382 10382 10382 10382 10383 10384 10384 10383 10383 10383 10383 10381 10380 10378 10377 10376 10376 10375 10374 10373 10371 10370 10368 10366 10363 10361 10358 10354 10351 10349 10346 10343 10340 10337 10334 10331 10328 10324 10320 10317 10313 10310 10307 10303 10299 10296 10292 10288 10284 10280 10276 10272 10268 10263 10258 10253 10247 10242 10237 10231 10226 10221 10216 10210 10204 10197 10191 10184 10178 10171 10163 10155 10148 10141 10133 10125 10116 10108 10100 10092
10361 10362 10364 10366 10368 10369 10368 10368 10369 10369 10371 10371 10370 10369 10369 10368 10368 10367 10366 10365 10364 10362 10361 10361 10360 10359 10358 10356 10353 10351 10349 10345 10342 10340 10337 10335 10332 10328 10325 10323 10320 10316 10313 10309 10305 10301 10298 10294 10291 10288 10284 10280 10276 10272 10268 10264 10260 10256 10252 10247 10241 10235 10230 10225 10220 10214 10209 10204 10198 10192 10186 10179 10172 10166 10159 10151 10143 10136 10129 10121 10112 10104 10095 10087 10079
10349 10350 10352 10353 10354 10355 10355 10355 10356 10356 10356 10356 10356 10356 10356 10355 10354 10353 10353 10352 10351 10349 10348 10348 10347 10347 10345 10343 10341 10339 10336 10332 10330 10328 10326 10323 10320 10317 10314 10311 10308 10305 10301 10298 10293 10289 10285 10282 10278 10275 10271 10268 10264 10260 10256 10252 10248 10244 10239 10234 10229 10224 10218 10213 10208 10203 10197 10192 10186 10180 10174 10167 10160 10154 10146 10139 10131 10124 10117 10109 10100 10091 10082 10074 10065
10336 10338 10339 10340 10340 10340 10340 10341 10342 10342 10341 10341 10342 10343 10343 10341 10340 10339 10339 10339 10337 10336 10335 10335 10334 10334 10332 10330 10328 10326 10323 10320 10318 10315 10313 10311 10308 10305 10302 10299 10295 10292 10289 10285 10281 10277 10273 10270 10266 10263 10259 10256 10252 10248 10244 10240 10235 10231 10227 10222 10217 10211 10205 10200 10195 10190 10185 10180 10174 10168 10161 10155 10148 10142 10134 10127 10119 10113 10105 10097 10088 10079 10070 10061 10052
10321 10323 10325 10326 10325 10325 10325 10326 10327 10326 10326 10327 10328 10328 10328 10327 10326 10325 10325 10324 10323 10322 10322 10322 10321 10320 10319 10318 10316 10313 10310 10307 10305 10302 10300 10298 10295 10292 10289 10286 10282 10279 10276 10273 10269 10266 10262 10258 10255 10251 10248 10244 10240 10236 10232 10228 10223 10219 10214 10209 10204 10198 10193 10187 10182 10177 10173 10168 10162 10156 10149 10143 10136 10129 10122 10115 10108 10101 10093 10084 10075 10066 10057 10048 10039
10306 10308 10310 10310 10311 10312 10312 10312 10311 10311 10311 10313 10313 10313 10313 10312 10311 10310 10310 10310 10309 10309 10309 10308 10307 10306 10305 10304 10302 10300 10297 10294 10292 10290 10288 10285 10282 10279 10276 10273 10270 10267 10263 10260 10257 10254 10250 10247 10243 10239 10236 10232 10228 10224 10220 10215 10211 10206 10201 10196 10191 10186 10180 10175 10170 10165 10160 10155 10149 10143 10137 10130 10124 10117 10110 10103 10096 10088 10080 10071 10062 10053 10044 10034 10024
10292 10294 10295 10296 10297 10297 10296 10297 10297 10297 10297 10298 10299 10299 10298 10298 10297 10296 10296 10296 10295 10295 10295 10294 10293 10292 10291 10290 10288 10286 10284 10281 10279 10277 10274 10272 10269 10266 10263 10260 10256 10253 10250 10248 10245 10242 10238 10235 10231 10227 10224 10220 10215 10211 10207 10202 10198 10193 10188 10183 10178 10173 10168 10163 10157 10152 10147 10142 10136 10130 10124 10117 10111 10104 10097 10090 10082 10074 10065 10056 10047 10038 10029 10020 10010
10278 10280 10281 10282 10282 10283 10282 10282 10282 10283 10283 10284 10284 10284 10283 10283 10283 10283 10282 10282 10282 10282 10281 10280 10279 10278 10277 10276 10275 10273 10270 10268 10265 10263 10260 10257 10254 10252 10249 10246 10243 10240 10237 10235 10232 10229 10226 10222 10218 10215 10211 10206 10202 10197 10193 10188 10184 10179 10175 10170 10165 10160 10155 10150 10144 10139 10133 10127 10121 10116 10110 10104 10098 10091 10083 10076 10067 10059 10051 10042 10033 10024 10015 10005 9996
10263 10265 10266 10266 10267 10268 10269 10269 10269 10270 10270 10271 10271 10270 10269 10269 10269 10269 10269 10269 10269 10268 10268 10267 10266 10264 10263 10262 10260 10259 10257 10254 10251 10248 10245 10243 10240 10237 10235 10232 10229 10226 10224 10221 10219 10216 10213 10209 10205 10201 10197 10192 10188 10183 10179 10174 10170 10165 10161 10157 10152 10147 10141 10136 10130 10124 10118 10112 10107 10102 10096 10090 10083 10076 10068 10061 10052 10044 10036 10028 10019 10010 10000 9991 9982
10248 10250 10252 10252 10252 10252 10254 10255 10256 10256 10257 10257 10257 10256 10256 10256 10256 10256 10256 10256 10255 10254 10254 10253 10251 10250 10248 10247 10245 10244 10242 10240 10237 10234 10231 10227 10225 10223 10220 10218 10215 10213 10210 10208 10205 10202 10199 10195 10191 10187 10182 10178 10173 10168 10164 10159 10155 10150 10146 10142 10137 10132 10127 10121 10115 10110 10104 10099 10094 10088 10082 10075 10069 10061 10054 10046 10037 10029 10021 10013 10004 9995 9986 9977 9969
10232 10234 10236 10238 10238 10238 10239 10241 10242 10242 10242 10242 10242 10242 10242 10243 10242 10242 10242 10241 10241 10240 10239 10238 10236 10235 10234 10232 10231 10229 10227 10225 10222 10219 10215 10213 10210 10208 10205 10203 10201 10198 10196 10193 10191 10187 10184 10181 10177 10172 10168 10163 10158 10153 10148 10144 10139 10135 10131 10126 10121 10116 10110 10105 10100 10095 10090 10085 10080 10074 10068 10061 10054 10047 10038 10030 10022 10014 10006 9997 9989 9980 9972 9963 9955
10216 10218 10220 10222 10223 10223 10224 10225 10226 10227 10227 10227 10227 10228 10228 10228 10228 10227 10227 10227 10226 10226 10225 10223 10222 10220 10219 10218 10216 10214 10211 10209 10206 10203 10201 10198 10195 10193 10190 10188 10186 10183 10181 10178 10175 10172 10169 10165 10161 10157 10153 10148 10143 10138 10133 10129 10124 10119 10114 10109 10104 10099 10094 10089 10085 10080 10075 10070 10064 10058 10052 10046 10038 10030 10022 10014 10006 9998 9990 9982 9974 9966 9958 9950 9942
10199 10202 10204 10206 10208 10209 10210 10211 10212 10212 10212 10212 10212 10212 10212 10212 10213 10213 10213 10212 10212 10211 10210 10208 10207 10205 10204 10202 10200 10198 10195 10193 10191 10188 10186 10183 10180 10178 10176 10173 10170 10167 10165 10162 10159 10156 10152 10149 10145 10141 10136 10132 10127 10122 10118 10113 10108 10103 10098 10093 10088 10083 10079 10074 10070 10065 10060 10054 10047 10041 10035 10028 10020 10013 10005 9997 9989 9982 9974 9966 9959 9951 9944 9936 9928
10181 10185 10188 10190 10192 10194 10195 10196 10198 10198 10197 10197 10197 10197 10197 10198 10198 10199 10199 10198 10197 10196 10195 10193 10192 10190 10188 10186 10184 10182 10180 10178 10175 10173 10171 10168 10165 10163 10160 10157 10154 10151 10148 10145 10142 10139 10135 10131 10127 10123 10119 10114 10110 10105 10101 10096 10091 10086 10081 10077 10072 10068 10064 10060 10054 10049 10043 10037 10030 10023 10016 10009 10002 9995 9987 9980 9972 9965 9958 9950 9943 9936 9929 9921 9913